Aérodrome :
LOGIN :

S'inscrire | Disclaimer

   EN    FR    IT 

 










Légende :    VFR   VFR Marginal   IFR   IFR Intensif   IFR Très Intensif
Visi : 
Plafond : 
>= 8 km
>= 3000ft
5 à 8 km
1000 à 3000 ft
1500m à 5 km
500 à 1000 ft
800 à 1500m
200 à 500 ft
< 800m
< 200 ft
Symboles :   Orages  Brouillard  Fortes neiges  Fortes précipitations  Vent > 20 kt
SIGMETs :   Divers  Orages  Givrage  Turbulence  Onde Orograph.  Cendres Volcan.






- Altitude de l'aérodrome : 512 ft
- Code IATA : URO


LFOP - Rouen Vallée de Seine

DERNIER METAR :
  • 040500Z AUTO 22010KT 9999 OVC026 15/11 Q1018

METARs EXPIRÉS :
  • 040430Z AUTO 22010KT 9999 OVC031 15/11 Q1018
  • 040400Z AUTO 23010KT 9999 OVC038 15/11 Q1018
  • 040330Z AUTO 22008KT 9999 OVC039 15/11 Q1018
  • 040300Z AUTO 23009KT 9999 BKN039 BKN058 OVC082 15/11 Q1018
  • 040230Z AUTO 22010KT CAVOK 15/11 Q1018

TAF TAF LFOP
Valide du 03 à 18h jusqu'au 04 à 18h UTC


031700Z 0318/0418 26010KT CAVOK
BECMG 0319/0322 VRB02KT
BECMG 0323/0401 22012KT
FM040700 22012KT 9999 OVC017
TEMPO 0407/0411 4000 RA SCT007 OVC012
ATIS : +33 2 35 80 80 34
Météo : +33 2 32 86 52 80



MET'MAP, la Météo Aéronautique d'un coup d'oeil ! - Copyright ORBIFLY Décembre 2007 - Disclaimer

ORBIFLY MET'MAP TEAM :

Programmation & Développement : Alexandra Zaïnal
Sur une idée originale de : Baudouin d'Aumeries
Assistance à la programmation : Marc-Olivier Méhu
Soutien technique & logistique : Manuel Goepfert

Contact : metmap@orbifly.com




SOURCES & CREDITS :

   NOAA